When you browse on this site, cookies collect data to enhance your experience and personalize the content and advertising you see.
Visit our Privacy Policy to learn more. By continuing to use the site, you agree to this use of cookies and data.

Hourly Weather Safronovo

Today, 13 July, Monday

Time Temperature Precipitation Wind Pressure Humidity
00:00 +13°C° 0 mm 2 mps 747 mmHg 94%
01:00 +12°C° 0 mm 2 mps 747 mmHg 95%
02:00 +12°C° 0 mm 2 mps 747 mmHg 95%
03:00 +12°C° 0 mm 2 mps 747 mmHg 94%
04:00 +12°C° 0 mm 2 mps 747 mmHg 93%
05:00 +12°C° 0 mm 3 mps 747 mmHg 92%
06:00 +12°C° 0 mm 3 mps 747 mmHg 91%
07:00 +12°C° 0 mm 3 mps 747 mmHg 91%
08:00 +13°C° 0 mm 3 mps 747 mmHg 90%
09:00 +13°C° 0 mm 3 mps 746 mmHg 90%
10:00 +13°C° 0 mm 3 mps 746 mmHg 90%
11:00 +13°C° 0 mm 4 mps 746 mmHg 90%
12:00 +13°C° 0.1 mm 4 mps 746 mmHg 90%
13:00 +14°C° 0.1 mm 4 mps 746 mmHg 90%
14:00 +14°C° 0.1 mm 4 mps 746 mmHg 90%
15:00 +14°C° 0.2 mm 4 mps 745 mmHg 91%
16:00 +13°C° 0.2 mm 4 mps 745 mmHg 92%
17:00 +13°C° 0.2 mm 4 mps 745 mmHg 93%
18:00 +13°C° 0 mm 3 mps 745 mmHg 93%
19:00 +13°C° 0 mm 3 mps 744 mmHg 93%
20:00 +13°C° 0 mm 2 mps 744 mmHg 93%
21:00 +13°C° 0 mm 2 mps 744 mmHg 94%
22:00 +13°C° 0 mm 2 mps 744 mmHg 94%
23:00 +13°C° 0 mm 2 mps 744 mmHg 95%

Tomorrow, 14 July, Tuesday

Time Temperature Precipitation Wind Pressure Humidity
00:00 +13°C° 0 mm 2 mps 744 mmHg 96%
01:00 +13°C° 0 mm 2 mps 744 mmHg 96%
02:00 +12°C° 0 mm 2 mps 744 mmHg 97%
03:00 +13°C° 0 mm 2 mps 744 mmHg 96%
04:00 +13°C° 0 mm 2 mps 744 mmHg 95%
05:00 +12°C° 0 mm 3 mps 744 mmHg 95%
06:00 +14°C° 0 mm 3 mps 744 mmHg 89%
07:00 +16°C° 0 mm 3 mps 744 mmHg 83%
08:00 +17°C° 0 mm 4 mps 744 mmHg 77%
09:00 +18°C° 0 mm 4 mps 744 mmHg 72%
10:00 +20°C° 0 mm 4 mps 744 mmHg 67%
11:00 +21°C° 0 mm 5 mps 744 mmHg 63%
12:00 +21°C° 0 mm 5 mps 744 mmHg 62%
13:00 +21°C° 0 mm 5 mps 743 mmHg 61%
14:00 +22°C° 0 mm 5 mps 743 mmHg 60%
15:00 +21°C° 0 mm 5 mps 743 mmHg 63%
16:00 +21°C° 0 mm 5 mps 742 mmHg 66%
17:00 +20°C° 0 mm 4 mps 742 mmHg 69%
18:00 +19°C° 0.5 mm 5 mps 741 mmHg 74%
19:00 +17°C° 0.5 mm 5 mps 741 mmHg 78%
20:00 +16°C° 0.5 mm 5 mps 740 mmHg 83%
21:00 +16°C° 2.1 mm 5 mps 740 mmHg 87%
22:00 +15°C° 2.1 mm 6 mps 739 mmHg 91%
23:00 +14°C° 2.1 mm 6 mps 738 mmHg 95%

Day after tomorrow, 15 July, Wednesday

Time Temperature Precipitation Wind Pressure Humidity
00:00 +14°C° 3.5 mm 6 mps 738 mmHg 96%
01:00 +14°C° 3.5 mm 7 mps 738 mmHg 96%
02:00 +14°C° 3.5 mm 7 mps 738 mmHg 96%
03:00 +14°C° 1.9 mm 7 mps 738 mmHg 96%
04:00 +14°C° 1.9 mm 7 mps 738 mmHg 96%
05:00 +12°C° 1.9 mm 7 mps 738 mmHg 96%
06:00 +12°C° 0.6 mm 7 mps 738 mmHg 96%
07:00 +12°C° 0.6 mm 7 mps 738 mmHg 96%
08:00 +12°C° 0.6 mm 7 mps 738 mmHg 96%
09:00 +14°C° 0.2 mm 6 mps 738 mmHg 95%
10:00 +14°C° 0.2 mm 6 mps 738 mmHg 94%
11:00 +14°C° 0.2 mm 6 mps 738 mmHg 93%
12:00 +14°C° 0.2 mm 6 mps 738 mmHg 93%
13:00 +14°C° 0.2 mm 6 mps 739 mmHg 94%
14:00 +14°C° 0.2 mm 6 mps 739 mmHg 94%
15:00 +14°C° 0.2 mm 6 mps 739 mmHg 94%
16:00 +14°C° 0.2 mm 6 mps 739 mmHg 93%
17:00 +14°C° 0.2 mm 6 mps 739 mmHg 93%
18:00 +14°C° 0.2 mm 6 mps 739 mmHg 94%
19:00 +14°C° 0.2 mm 5 mps 739 mmHg 95%
20:00 +13°C° 0.2 mm 5 mps 739 mmHg 96%
21:00 +13°C° 0 mm 5 mps 739 mmHg 95%
22:00 +13°C° 0 mm 5 mps 739 mmHg 95%
23:00 +13°C° 0 mm 5 mps 739 mmHg 95%

16 July, Thursday

Time Temperature Precipitation Wind Pressure Humidity
00:00 +13°C° 0 mm 5 mps 739 mmHg 94%
01:00 +13°C° 0 mm 5 mps 739 mmHg 94%
02:00 +13°C° 0 mm 5 mps 739 mmHg 93%
03:00 +13°C° 0.1 mm 5 mps 739 mmHg 93%
04:00 +13°C° 0.1 mm 5 mps 739 mmHg 93%
05:00 +13°C° 0.1 mm 5 mps 739 mmHg 92%
06:00 +13°C° 0.3 mm 5 mps 739 mmHg 93%
07:00 +13°C° 0.3 mm 5 mps 739 mmHg 94%
08:00 +13°C° 0.3 mm 5 mps 739 mmHg 95%
09:00 +13°C° 0.4 mm 5 mps 740 mmHg 96%
10:00 +13°C° 0.4 mm 5 mps 740 mmHg 96%
11:00 +13°C° 0.4 mm 5 mps 740 mmHg 96%
12:00 +14°C° 0.7 mm 5 mps 740 mmHg 96%
13:00 +14°C° 0.7 mm 5 mps 741 mmHg 96%
14:00 +14°C° 0.7 mm 5 mps 741 mmHg 96%
15:00 +14°C° 0.4 mm 5 mps 741 mmHg 96%
16:00 +14°C° 0.4 mm 5 mps 741 mmHg 96%
17:00 +14°C° 0.4 mm 5 mps 741 mmHg 96%
18:00 +13°C° 0.1 mm 4 mps 742 mmHg 96%
19:00 +13°C° 0.1 mm 4 mps 742 mmHg 96%
20:00 +13°C° 0.1 mm 4 mps 742 mmHg 96%
21:00 +13°C° 0 mm 4 mps 742 mmHg 96%
22:00 +13°C° 0 mm 3 mps 742 mmHg 97%
23:00 +13°C° 0 mm 3 mps 742 mmHg 97%

17 July, Friday

Time Temperature Precipitation Wind Pressure Humidity
00:00 +12°C° 0 mm 3 mps 742 mmHg 97%
01:00 +12°C° 0 mm 3 mps 742 mmHg 97%
02:00 +12°C° 0 mm 3 mps 742 mmHg 96%
03:00 +12°C° 0 mm 3 mps 742 mmHg 96%
04:00 +12°C° 0 mm 3 mps 742 mmHg 96%
05:00 +12°C° 0 mm 3 mps 742 mmHg 96%
06:00 +13°C° 0 mm 3 mps 743 mmHg 95%
07:00 +13°C° 0 mm 3 mps 743 mmHg 94%
08:00 +14°C° 0 mm 4 mps 743 mmHg 93%
09:00 +14°C° 0 mm 4 mps 743 mmHg 91%
10:00 +15°C° 0 mm 4 mps 744 mmHg 89%
11:00 +15°C° 0 mm 4 mps 744 mmHg 86%
12:00 +17°C° 0 mm 4 mps 744 mmHg 85%
13:00 +17°C° 0 mm 4 mps 744 mmHg 84%
14:00 +17°C° 0 mm 4 mps 744 mmHg 82%
15:00 +17°C° 0 mm 4 mps 745 mmHg 82%
16:00 +17°C° 0 mm 4 mps 745 mmHg 82%
17:00 +17°C° 0 mm 4 mps 745 mmHg 82%
18:00 +16°C° 0 mm 3 mps 745 mmHg 85%
19:00 +15°C° 0 mm 2 mps 745 mmHg 87%
20:00 +14°C° 0 mm 2 mps 745 mmHg 90%
21:00 +14°C° 0 mm 2 mps 745 mmHg 90%
22:00 +14°C° 0 mm 2 mps 745 mmHg 90%
23:00 +13°C° 0 mm 2 mps 746 mmHg 90%

18 July, Saturday

Time Temperature Precipitation Wind Pressure Humidity
00:00 +13°C° 0 mm 2 mps 746 mmHg 90%
01:00 +13°C° 0 mm 2 mps 746 mmHg 89%
02:00 +13°C° 0 mm 2 mps 746 mmHg 89%
03:00 +13°C° 0 mm 2 mps 746 mmHg 88%
04:00 +13°C° 0 mm 2 mps 746 mmHg 88%
05:00 +12°C° 0 mm 3 mps 746 mmHg 87%
06:00 +12°C° 0 mm 3 mps 746 mmHg 87%
07:00 +12°C° 0 mm 3 mps 746 mmHg 87%
08:00 +12°C° 0 mm 3 mps 746 mmHg 86%
09:00 +12°C° 0 mm 3 mps 747 mmHg 87%
10:00 +12°C° 0 mm 3 mps 747 mmHg 87%
11:00 +12°C° 0 mm 3 mps 747 mmHg 87%
12:00 +13°C° 0 mm 3 mps 747 mmHg 84%
13:00 +14°C° 0 mm 3 mps 747 mmHg 81%
14:00 +14°C° 0 mm 3 mps 747 mmHg 79%
15:00 +14°C° 0 mm 3 mps 748 mmHg 80%
16:00 +14°C° 0 mm 3 mps 748 mmHg 81%
17:00 +14°C° 0 mm 3 mps 748 mmHg 81%
18:00 +14°C° 0 mm 2 mps 748 mmHg 84%
19:00 +14°C° 0 mm 2 mps 748 mmHg 86%
20:00 +13°C° 0 mm 2 mps 748 mmHg 88%
21:00 +13°C° 0 mm 2 mps 748 mmHg 85%
22:00 +13°C° 0 mm 2 mps 748 mmHg 83%
23:00 +12°C° 0 mm 3 mps 748 mmHg 80%
Show more